FW4251 Weather Reports


Display with metric or nautical units.
time (UTC)temp
F
wind
direction
speed
MPH
gust
MPH
rain 1hr
in
rain 24hr
in
rain mn
in
humidity
%
barometer
mb
20260904152040 78 311 5.0 10.0 0.00 0.00 0.00 65 1012.2
20260904151540 78 336 2.0 10.0 0.00 0.00 0.00 66 1012.2
20260904151037 78 329 3.0 11.0 0.00 0.00 0.00 69 1012.1
20260904150536 77 313 6.0 11.0 0.00 0.00 0.00 68 1012.2
20260904150037 76 338 4.0 13.0 0.00 0.00 0.00 72 1012.4
20260904145533 76 289 5.0 13.0 0.00 0.00 0.00 74 1012.4
20260904145032 75 265 6.0 10.0 0.00 0.00 0.00 81 1012.4
20260904144530 74 360 2.0 8.0 0.00 0.00 0.00 88 1012.3
20260904144028 73 326 3.0 6.0 0.00 0.00 0.00 91 1012.5
20260904143527 73 334 4.0 6.0 0.00 0.00 0.00 94 1012.5
20260904143026 73 35 1.0 3.0 0.00 0.00 0.00 95 1012.5
20260904142524 72 66 1.0 2.0 0.00 0.00 0.00 95 1012.6
20260904142022 72 66 0.0 3.0 0.00 0.00 0.00 96 1012.4
20260904141521 71 66 2.0 3.0 0.00 0.00 0.00 95 1012.4
20260904141021 71 94 1.0 3.0 0.00 0.00 0.00 96 1012.4
20260904140524 71 94 1.0 3.0 0.00 0.00 0.00 95 1012.4
20260904140021 70 95 0.0 2.0 0.00 0.00 0.00 96 1012.4
20260904135521 70 95 0.0 2.0 0.00 0.00 0.00 95 1012.5
20260904135021 70 95 0.0 3.0 0.00 0.00 0.00 95 1012.4
20260904134523 70 95 0.0 3.0 0.00 0.00 0.00 95 1012.3
20260904134020 70 95 0.0 6.0 0.00 0.00 0.00 95 1012.3
20260904133520 70 95 1.0 6.0 0.00 0.00 0.00 95 1012.3
20260904133022 70 115 2.0 4.0 0.00 0.00 0.00 95 1012.3
20260904132526 70 130 1.0 4.0 0.00 0.00 0.00 95 1012.4
20260904132019 70 173 0.0 3.0 0.00 0.00 0.00 95 1012.3
20260904131519 70 173 1.0 3.0 0.00 0.00 0.00 95 1012.3
20260904131021 70 174 0.0 3.0 0.00 0.00 0.00 95 1012.4
20260904130521 70 174 0.0 3.0 0.00 0.00 0.00 95 1012.4
20260904130018 70 174 0.0 3.0 0.00 0.00 0.00 95 1012.5
20260904125520 70 174 0.0 1.0 0.00 0.00 0.00 95 1012.4
20260904125020 70 174 0.0 1.0 0.00 0.00 0.00 95 1012.4
20260904124518 70 174 0.0 3.0 0.00 0.00 0.00 95 1012.4
20260904124022 70 174 0.0 3.0 0.00 0.00 0.00 95 1012.3
20260904123517 70 174 1.0 2.0 0.00 0.00 0.00 95 1012.3
20260904123017 70 174 1.0 2.0 0.00 0.00 0.00 95 1012.5
20260904122520 69 176 0.0 3.0 0.00 0.00 0.00 95 1012.3
20260904122016 69 176 1.0 3.0 0.00 0.00 0.00 95 1012.3
20260904121516 69 175 1.0 3.0 0.00 0.00 0.00 95 1012.2
20260904121016 69 175 0.0 3.0 0.00 0.00 0.00 95 1012.1
20260904120514 69 175 1.0 3.0 0.00 0.00 0.00 95 1012.1
20260904120016 69 175 0.0 3.0 0.00 0.00 0.00 95 1012.1
20260904115513 68 171 2.0 4.0 0.00 0.00 0.00 95 1012.0
20260904115013 68 171 0.0 2.0 0.00 0.00 0.00 95 1011.9
20260904114513 68 171 0.0 2.0 0.00 0.00 0.00 95 1011.9
20260904114015 68 171 0.0 2.0 0.00 0.00 0.00 95 1012.1
20260904113513 68 171 0.0 3.0 0.00 0.00 0.00 95 1011.9
20260904113012 68 171 1.0 3.0 0.00 0.00 0.00 94 1011.8
20260904112510 68 171 0.0 2.0 0.00 0.00 0.00 94 1011.8
20260904112010 68 171 0.0 3.0 0.00 0.00 0.00 94 1011.8
20260904111512 68 171 1.0 3.0 0.00 0.00 0.00 94 1011.5
20260904111010 68 171 1.0 2.0 0.00 0.00 0.00 94 1011.5
20260904110510 68 171 0.0 0.0 0.00 0.00 0.00 94 1011.5
20260904110009 68 171 0.0 0.0 0.00 0.00 0.00 94 1011.4
20260904105608 68 171 0.0 0.0 0.00 0.00 0.00 94 1011.6
20260904105008 68 171 0.0 1.0 0.00 0.00 0.00 94 1011.4
20260904104507 68 171 0.0 2.0 0.00 0.00 0.00 94 1011.3
20260904104010 68 171 0.0 2.0 0.00 0.00 0.00 94 1011.3
20260904103510 68 171 0.0 2.0 0.00 0.00 0.00 94 1011.2
20260904103006 68 171 0.0 1.0 0.00 0.00 0.00 94 1011.1
20260904102506 68 171 0.0 1.0 0.00 0.00 0.00 94 1011.1
20260904102006 68 171 0.0 0.0 0.00 0.00 0.00 94 1011.3
20260904101515 68 171 0.0 0.0 0.00 0.00 0.00 94 1011.3
20260904101008 68 171 0.0 0.0 0.00 0.00 0.00 94 1011.4
20260904100504 69 171 0.0 0.0 0.00 0.00 0.00 94 1011.2
20260904100003 69 171 0.0 0.0 0.00 0.00 0.00 94 1011.2
20260904095503 69 171 0.0 0.0 0.00 0.00 0.00 94 1011.1
20260904095003 69 171 0.0 0.0 0.00 0.00 0.00 94 1011.1
20260904094502 69 171 0.0 0.0 0.00 0.00 0.00 94 1011.1
20260904094002 69 171 0.0 0.0 0.00 0.00 0.00 94 1011.0
20260904093502 69 171 0.0 0.0 0.00 0.00 0.00 94 1011.2
20260904093003 69 171 0.0 0.0 0.00 0.00 0.00 94 1011.2
20260904092500 69 171 0.0 0.0 0.00 0.00 0.00 94 1011.2
20260904092002 69 171 0.0 2.0 0.00 0.00 0.00 94 1011.1
20260904091600 69 171 1.0 2.0 0.00 0.00 0.00 94 1010.9
20260904091059 69 171 0.0 0.0 0.00 0.00 0.00 94 1010.9
20260904090559 69 171 0.0 2.0 0.00 0.00 0.00 94 1011.0
20260904090059 69 171 1.0 2.0 0.00 0.00 0.00 94 1010.8
20260904085558 70 171 0.0 2.0 0.00 0.00 0.00 94 1010.7
20260904085058 70 171 0.0 0.0 0.00 0.00 0.00 94 1010.8
20260904084601 70 171 0.0 0.0 0.00 0.00 0.00 94 1010.7
20260904084100 70 171 0.0 0.0 0.00 0.00 0.00 94 1010.6
20260904083600 70 171 0.0 0.0 0.00 0.00 0.00 94 1010.4
20260904083056 70 171 0.0 0.0 0.00 0.00 0.00 94 1010.3
20260904082556 70 171 0.0 1.0 0.00 0.00 0.00 94 1010.3
20260904082056 70 171 0.0 1.0 0.00 0.00 0.00 94 1010.3
20260904081556 70 171 0.0 2.0 0.00 0.00 0.00 94 1010.3
20260904081055 70 171 1.0 3.0 0.00 0.00 0.00 94 1010.3
20260904080600 70 171 0.0 3.0 0.00 0.00 0.00 94 1010.2
20260904080115 70 171 1.0 3.0 0.00 0.00 0.00 94 1010.0
20260904075557 70 171 0.0 3.0 0.00 0.00 0.00 94 1010.2
20260904075053 70 171 0.0 2.0 0.00 0.00 0.00 94 1010.3
20260904074554 70 171 0.0 2.0 0.00 0.00 0.00 94 1010.2
20260904074057 71 171 0.0 2.0 0.00 0.00 0.00 94 1010.1
20260904073554 71 171 0.0 2.0 0.00 0.00 0.00 94 1010.1
20260904073052 71 171 0.0 2.0 0.00 0.00 0.00 93 1010.3
20260904072551 71 171 1.0 2.0 0.00 0.00 0.00 93 1010.3
20260904072054 71 171 0.0 2.0 0.00 0.00 0.00 93 1010.3
20260904071550 71 171 0.0 2.0 0.00 0.00 0.00 93 1010.4
20260904071050 71 171 0.0 2.0 0.00 0.00 0.00 93 1010.6
20260904070550 71 171 0.0 1.0 0.00 0.00 0.00 93 1010.6
20260904070055 71 171 0.0 0.0 0.00 0.00 0.00 93 1010.8
20260904065548 71 171 0.0 4.0 0.00 0.00 0.00 93 1010.8
20260904065046 71 171 2.0 5.0 0.00 0.00 0.00 93 1011.0
20260904064547 71 171 2.0 6.0 0.00 0.00 0.00 93 1011.3
20260904064046 71 171 1.0 2.0 0.00 0.00 0.00 93 1011.4
20260904063546 71 171 0.0 0.0 0.00 0.00 0.00 93 1011.4
20260904063107 71 171 0.0 2.0 0.00 0.00 0.00 93 1011.2
20260904062545 71 171 0.0 2.0 0.00 0.00 0.00 93 1011.1
20260904062047 71 171 0.0 1.0 0.00 0.00 0.00 93 1011.2
20260904061545 71 171 0.0 0.0 0.00 0.00 0.00 93 1011.2
20260904061049 71 171 0.0 0.0 0.00 0.00 0.00 93 1011.2
20260904060544 71 171 0.0 0.0 0.00 0.00 0.00 93 1011.2
20260904060049 71 171 0.0 0.0 0.00 0.00 0.00 93 1011.3
20260904055542 71 171 0.0 0.0 0.00 0.00 0.00 93 1011.2
20260904055042 71 171 0.0 0.0 0.00 0.00 0.00 93 1011.3
20260904054547 71 171 0.0 0.0 0.00 0.00 0.00 93 1011.3
20260904054045 71 171 0.0 0.0 0.00 0.00 0.00 93 1011.2
20260904053541 71 171 0.0 0.0 0.00 0.00 0.00 92 1011.2
20260904053054 71 171 0.0 0.0 0.00 0.00 0.00 92 1011.3
20260904052541 71 171 0.0 0.0 0.00 0.00 0.00 92 1011.4
20260904052043 71 171 0.0 0.0 0.00 0.00 0.00 92 1011.3
20260904051541 71 171 0.0 0.0 0.00 0.00 0.00 92 1011.3
20260904051040 72 171 0.0 0.0 0.00 0.00 0.00 92 1011.3
20260904050540 71 171 0.0 0.0 0.00 0.00 0.00 92 1011.3
20260904050039 72 171 0.0 0.0 0.00 0.00 0.00 92 1011.3
20260904045539 72 171 0.0 2.0 0.00 0.00 0.00 92 1011.4
20260904045039 72 171 0.0 2.0 0.00 0.00 0.00 92 1011.4
20260904044540 72 171 0.0 2.0 0.00 0.00 0.00 92 1011.6
20260904044038 72 171 0.0 2.0 0.00 0.00 0.00 92 1011.6
20260904043538 72 171 0.0 0.0 0.00 0.00 0.00 92 1011.6
20260904043049 72 171 0.0 1.0 0.00 0.00 0.00 92 1011.5
20260904042536 72 171 0.0 1.0 0.00 0.00 0.00 92 1011.5
20260904042039 72 171 0.0 0.0 0.00 0.00 0.00 92 1011.6
20260904041535 72 171 0.0 0.0 0.00 0.00 0.00 92 1011.8
20260904041035 72 171 0.0 0.0 0.00 0.00 0.00 92 1011.7
20260904040534 72 171 0.0 0.0 0.00 0.00 0.00 92 1011.6
20260904040032 72 171 0.0 0.0 0.00 0.00 0.00 92 1011.6
20260904035532 72 171 0.0 0.0 0.00 0.00 0.00 92 1011.7
20260904035131 72 171 0.0 0.0 0.00 0.00 0.00 92 1011.7
20260904034531 72 171 0.0 0.0 0.00 0.00 0.00 92 1011.8
20260904034032 72 171 0.0 0.0 0.00 0.00 0.00 92 1012.0
20260904033534 72 171 0.0 0.0 0.00 0.00 0.00 91 1011.9
20260904033033 72 171 0.0 0.0 0.00 0.00 0.00 91 1011.8
20260904032531 73 171 0.0 2.0 0.00 0.00 0.00 91 1011.9
20260904032031 73 171 0.0 3.0 0.00 0.00 0.00 91 1012.0
20260904031531 73 171 1.0 4.0 0.00 0.00 0.00 91 1011.9
20260904031031 73 171 3.0 4.0 0.00 0.00 0.00 91 1011.9
20260904030531 73 190 1.0 3.0 0.00 0.00 0.00 90 1012.0
20260904030041 73 190 0.0 3.0 0.00 0.00 0.00 90 1012.0
20260904025530 73 190 0.0 3.0 0.00 0.00 0.00 90 1012.1
20260904025030 73 190 0.0 1.0 0.00 0.00 0.00 90 1012.2
20260904024530 73 190 0.0 0.0 0.00 0.00 0.00 90 1012.2
20260904024031 73 190 0.0 0.0 0.00 0.00 0.00 90 1012.3
20260904023531 73 190 0.0 0.0 0.00 0.00 0.00 90 1012.5
20260904023030 73 190 0.0 0.0 0.00 0.00 0.00 89 1012.4
20260904022529 73 190 0.0 0.0 0.00 0.00 0.00 89 1012.4
20260904022031 74 190 0.0 0.0 0.00 0.00 0.00 90 1012.3
20260904021534 74 190 0.0 0.0 0.00 0.00 0.00 89 1012.4
20260904021028 74 190 0.0 0.0 0.00 0.00 0.00 89 1012.5
20260904020529 74 190 0.0 0.0 0.00 0.00 0.00 89 1012.5
20260904020028 74 190 0.0 1.0 0.00 0.00 0.00 89 1012.6
20260904015532 74 190 0.0 2.0 0.00 0.00 0.00 89 1012.6
20260904015028 74 190 0.0 2.0 0.00 0.00 0.00 89 1012.6
20260904014528 74 190 0.0 0.0 0.00 0.00 0.00 89 1012.4
20260904014031 74 190 0.0 0.0 0.00 0.00 0.00 89 1012.5
20260904013527 75 190 0.0 0.0 0.00 0.00 0.00 89 1012.5
20260904013027 75 190 0.0 0.0 0.00 0.00 0.00 89 1012.5
20260904012527 75 190 0.0 0.0 0.00 0.00 0.00 88 1012.4
20260904012027 75 190 0.0 0.0 0.00 0.00 0.00 88 1012.4
20260904011527 75 190 0.0 0.0 0.00 0.00 0.00 88 1012.4
20260904011026 75 190 0.0 0.0 0.00 0.00 0.00 88 1012.4
20260904010527 75 190 0.0 0.0 0.00 0.00 0.00 88 1012.3
20260904010026 76 190 0.0 1.0 0.00 0.00 0.00 87 1012.4
20260904005525 76 190 0.0 1.0 0.00 0.00 0.00 87 1012.4
20260904005025 76 190 0.0 0.0 0.00 0.00 0.00 87 1012.4
20260904004528 76 190 0.0 0.0 0.00 0.00 0.00 87 1012.4
20260904004028 76 190 0.0 0.0 0.00 0.00 0.00 87 1012.3
20260904003525 76 190 0.0 0.0 0.00 0.00 0.00 87 1012.3
20260904003025 77 190 0.0 0.0 0.00 0.00 0.00 86 1012.4
20260904002525 77 190 0.0 0.0 0.00 0.00 0.00 86 1012.3
20260904002025 77 190 0.0 0.0 0.00 0.00 0.00 85 1012.2
20260904001524 77 190 0.0 0.0 0.00 0.00 0.00 85 1012.2
20260904001024 77 190 0.0 0.0 0.00 0.00 0.00 84 1012.2
20260904000525 78 190 0.0 0.0 0.00 0.00 0.00 84 1012.1
20260904000023 78 190 0.0 0.0 0.00 0.00 0.00 84 1012.0
20260903235522 78 190 0.0 0.0 0.00 0.00 0.00 83 1012.0
20260903235022 78 190 0.0 0.0 0.00 0.00 0.00 83 1012.1
20260903234522 79 190 0.0 0.0 0.00 0.00 0.00 83 1012.3
20260903234022 79 190 0.0 0.0 0.00 0.00 0.00 82 1012.1
20260903233522 79 190 0.0 0.0 0.00 0.00 0.00 82 1011.9
20260903233033 79 190 0.0 0.0 0.00 0.00 0.00 82 1011.7
20260903232523 80 190 0.0 0.0 0.00 0.00 0.00 82 1011.7
20260903232021 80 190 0.0 0.0 0.00 0.00 0.00 82 1011.6
20260903231535 80 190 0.0 0.0 0.00 0.00 0.00 81 1011.6
20260903231021 80 190 0.0 0.0 0.00 0.00 0.00 81 1011.9
20260903230526 80 190 0.0 0.0 0.00 0.00 0.00 81 1011.9
20260903230020 80 190 0.0 1.0 0.00 0.00 0.00 81 1012.0
20260903225520 80 190 0.0 1.0 0.00 0.00 0.00 80 1011.9
20260903225020 80 190 0.0 0.0 0.00 0.00 0.00 80 1012.0
20260903224520 80 190 0.0 0.0 0.00 0.00 0.00 80 1011.8
20260903224020 81 190 0.0 3.0 0.00 0.00 0.00 80 1011.8
20260903223523 81 190 0.0 3.0 0.00 0.00 0.00 79 1011.8
20260903223019 81 190 1.0 4.0 0.00 0.00 0.00 78 1011.8
20260903222519 81 190 0.0 3.0 0.00 0.00 0.00 78 1011.9
20260903222019 82 190 0.0 3.0 0.00 0.00 0.00 78 1011.8
20260903221520 82 190 0.0 5.0 0.00 0.00 0.00 78 1011.8
20260903221022 82 190 2.0 5.0 0.00 0.00 0.00 78 1011.7
20260903220519 83 167 1.0 2.0 0.00 0.00 0.00 77 1011.7
20260903220021 83 167 0.0 3.0 0.00 0.00 0.00 77 1011.8
20260903215518 83 167 0.0 3.0 0.00 0.00 0.00 77 1011.8
20260903215018 84 167 1.0 5.0 0.00 0.00 0.00 76 1011.9
20260903214518 84 167 2.0 4.0 0.00 0.00 0.00 74 1011.9
20260903214016 84 167 2.0 4.0 0.00 0.00 0.00 73 1011.8
20260903213515 85 167 1.0 6.0 0.00 0.00 0.00 72 1011.9
20260903213015 85 167 2.0 6.0 0.00 0.00 0.00 72 1011.9
20260903212516 85 162 3.0 5.0 0.00 0.00 0.00 70 1011.9
20260903212017 86 162 1.0 4.0 0.00 0.00 0.00 70 1011.9
20260903211515 86 162 0.0 3.0 0.00 0.00 0.00 70 1011.8
20260903211015 86 162 1.0 5.0 0.00 0.00 0.00 70 1011.7
20260903210515 86 161 0.0 5.0 0.00 0.00 0.00 69 1011.8
20260903210014 86 162 1.0 5.0 0.00 0.00 0.00 68 1011.8
20260903205513 87 162 0.0 3.0 0.00 0.00 0.00 71 1011.8
20260903205013 86 162 1.0 5.0 0.00 0.00 0.00 70 1011.7
20260903204513 86 190 1.0 3.0 0.00 0.00 0.00 70 1011.6
20260903204018 86 190 0.0 5.0 0.00 0.00 0.00 70 1011.6
20260903203511 86 190 1.0 7.0 0.00 0.00 0.00 69 1011.5
20260903203013 86 183 2.0 7.0 0.00 0.00 0.00 66 1011.7
20260903202511 86 165 3.0 6.0 0.00 0.00 0.00 67 1011.7
20260903202010 86 157 1.0 5.0 0.00 0.00 0.00 70 1011.5
20260903201511 86 211 3.0 5.0 0.00 0.00 0.00 67 1011.8
20260903201009 86 215 2.0 6.0 0.00 0.00 0.00 67 1011.8
20260903200508 86 169 1.0 5.0 0.00 0.00 0.00 68 1011.9
20260903200008 86 169 0.0 5.0 0.00 0.00 0.00 70 1011.9
20260903195506 86 169 2.0 5.0 0.00 0.00 0.00 68 1012.0
20260903195005 86 129 1.0 5.0 0.00 0.00 0.00 71 1011.9
20260903194505 85 202 2.0 5.0 0.00 0.00 0.00 71 1011.9
20260903194003 85 206 1.0 4.0 0.00 0.00 0.00 73 1012.0
20260903193501 84 205 2.0 5.0 0.00 0.00 0.00 72 1011.9
20260903193102 84 281 1.0 6.0 0.00 0.00 0.00 72 1011.9
20260903192559 84 296 0.0 3.0 0.00 0.00 0.00 72 1011.9
20260903192057 83 296 1.0 3.0 0.00 0.00 0.00 72 1012.3
20260903191603 83 296 0.0 3.0 0.00 0.00 0.00 71 1012.3
20260903191058 83 296 0.0 2.0 0.00 0.00 0.00 73 1012.3
20260903190557 83 296 0.0 2.0 0.00 0.00 0.00 73 1012.4
20260903190056 83 296 0.0 2.0 0.00 0.00 0.00 73 1012.4
20260903185600 83 296 0.0 2.0 0.00 0.00 0.00 73 1012.4
20260903185055 83 296 0.0 2.0 0.00 0.00 0.00 73 1012.4
20260903184559 83 296 0.0 3.0 0.00 0.00 0.00 73 1012.4
20260903184057 83 296 0.0 3.0 0.00 0.00 0.00 72 1012.7
20260903183554 83 296 0.0 3.0 0.00 0.00 0.00 72 1012.7
20260903183058 83 296 0.0 4.0 0.00 0.00 0.00 72 1012.8
20260903182556 83 296 1.0 6.0 0.00 0.00 0.00 71 1012.7
20260903182052 83 265 2.0 6.0 0.00 0.00 0.00 72 1012.7
20260903181551 83 315 2.0 6.0 0.00 0.00 0.00 72 1012.8
20260903181050 82 335 1.0 5.0 0.00 0.00 0.00 73 1012.8
20260903180551 82 340 1.0 6.0 0.00 0.00 0.00 75 1012.8
20260903180048 82 345 0.0 6.0 0.00 0.00 0.00 73 1012.8
20260903175546 82 329 3.0 6.0 0.00 0.00 0.00 74 1012.9
20260903175050 82 327 1.0 4.0 0.00 0.00 0.00 75 1012.8
20260903174546 82 163 0.0 2.0 0.00 0.00 0.00 77 1012.8
20260903174045 82 163 0.0 2.0 0.00 0.00 0.00 76 1012.7
20260903173543 81 163 1.0 3.0 0.00 0.00 0.00 77 1012.8
20260903173043 81 163 0.0 4.0 0.00 0.00 0.00 79 1012.8
20260903172545 81 163 0.0 0.0 0.00 0.00 0.00 78 1012.8
20260903172041 81 163 0.0 3.0 0.00 0.00 0.00 78 1012.8
20260903171552 81 163 1.0 3.0 0.00 0.00 0.00 79 1013.0
20260903171041 81 163 0.0 3.0 0.00 0.00 0.00 77 1013.0
20260903170541 81 163 0.0 6.0 0.00 0.00 0.00 78 1012.9
20260903170047 81 163 1.0 6.0 0.00 0.00 0.00 78 1013.0
20260903165539 81 163 1.0 6.0 0.00 0.00 0.00 79 1013.2
20260903165037 81 166 1.0 6.0 0.00 0.00 0.00 80 1013.2
20260903164537 81 214 1.0 6.0 0.00 0.00 0.00 79 1013.3
20260903164036 81 149 2.0 5.0 0.00 0.00 0.00 80 1013.4
20260903163535 80 214 1.0 5.0 0.00 0.00 0.00 81 1013.4
20260903163039 80 176 1.0 6.0 0.00 0.00 0.00 81 1013.6
20260903162533 80 172 3.0 6.0 0.00 0.00 0.00 81 1013.5
20260903162032 80 178 2.0 5.0 0.00 0.00 0.00 82 1013.5
20260903161531 79 227 2.0 5.0 0.00 0.00 0.00 83 1013.6
20260903161031 79 172 1.0 5.0 0.00 0.00 0.00 85 1013.7
20260903160530 79 145 2.0 6.0 0.00 0.00 0.00 87 1013.6
20260903160027 78 180 2.0 8.0 0.00 0.00 0.00 89 1013.6
20260903155529 77 183 1.0 6.0 0.00 0.00 0.00 91 1013.7
20260903155028 77 232 3.0 6.0 0.00 0.00 0.00 93 1013.6
20260903154523 76 186 1.0 8.0 0.00 0.00 0.00 94 1013.6
20260903154022 75 181 3.0 9.0 0.00 0.00 0.00 95 1013.7
20260903153520 75 237 3.0 9.0 0.00 0.00 0.00 96 1013.9
20260903153020 75 238 2.0 6.0 0.00 0.00 0.00 96 1013.9
20260903152518 75 182 2.0 7.0 0.00 0.00 0.00 97 1013.7